Home > Weather > Lørenskog > Past weeks

Flag for Norway Past Weather in Lørenskog, Norway — Yesterday and Last 2 Weeks

Now
57 °F

Cool.


Feels Like: 57 °F
Forecast: 51 / 66 °F
Wind: 1 mph from South

Location: Oslo-Blindern

Current Time: Jul 30, 2016 at 7:38:47 AM

Latest Report: Jul 30, 2016 at 6:00 AM


Visibility: N/A

Pressure: 29.65 "Hg

Humidity: 96%

Dew Point: 56 °F

Location of LørenskogLocation

Past Weather in Lørenskog — Graph

°F

Lørenskog Temperature Yesterday

Maximum temperature yesterday: 68 °F (at 4:00 PM)
Minimum temperature yesterday: 58 °F (at 5:00 AM)
Average temperature yesterday: 62 °F

High & Low Weather Summary for the Past Weeks

 TemperatureHumidityPressure
High82 °F (Jul 21, 3:00 PM)97% (Jul 30, 1:00 AM)30.13 "Hg (Jul 30, 1:00 AM)
Low49 °F (Jul 17, 5:00 AM)37% (Jul 22, 7:00 PM)29.65 "Hg (Jul 30, 6:00 AM)
Average65 °F71%29.94 "Hg
* Reported Jul 15 6:00 AM — Jul 30 6:00 AM, Lørenskog, Weather by CustomWeather, © 2016

Note: Actual official high and low records may vary slightly from our data, if they occured in-between our weather recording intervals... More about our weather records

Advertising

Lørenskog Weather History for the Previous 24 Hours

Scroll right to see more
 ConditionsComfort  
Time TempWeatherWind HumidityBarometerVisibility
6:00 AM
Sat, Jul 30
57 °FCool.1 mph96%29.65 "HgN/A
5:00 AM57 °FCool.3 mph97%29.65 "HgN/A
4:00 AM57 °FCool.1 mph96%29.65 "HgN/A
3:00 AM57 °FCool.2 mph97%29.66 "HgN/A
2:00 AM58 °FCool.3 mph96%29.67 "HgN/A
1:00 AM59 °FCool.3 mph97%29.67 "HgN/A
12:00 AM59 °FCool.5 mph95%29.69 "HgN/A
11:00 PM
Fri, Jul 29
58 °FCool.2 mph94%29.70 "HgN/A
10:00 PM59 °FCool.2 mph93%29.71 "HgN/A
9:00 PM62 °FCool.1 mph83%29.71 "HgN/A
8:00 PM62 °FLight rain. Overcast.1 mph84%29.72 "Hg37 mi
7:00 PM63 °FMild.3 mph78%29.74 "HgN/A
6:00 PM64 °FMild.3 mph76%29.75 "HgN/A
5:00 PM65 °FOvercast.7 mph73%29.75 "Hg37 mi
4:00 PM68 °FMild.3 mph58%29.75 "HgN/A
3:00 PM66 °FMild.3 mph60%29.77 "HgN/A
2:00 PM66 °FSprinkles. Overcast.5 mph64%29.78 "Hg43 mi
1:00 PM67 °FMild.2 mph58%29.78 "HgN/A
12:00 PM65 °FMild.3 mph65%29.79 "HgN/A
11:00 AM63 °FOvercast.3 mph74%29.80 "Hg43 mi
10:00 AM62 °FCool.2 mph78%29.80 "HgN/A
9:00 AM62 °FCool.2 mph80%29.80 "HgN/A
8:00 AM63 °FMild.1 mph76%29.80 "HgN/A
7:00 AM59 °FCool.1 mph86%29.80 "HgN/A
Weather by CustomWeather, © 2016

See weather overviewHow to use our weather pages